When you browse on this site, cookies collect data to enhance your experience and personalize the content and advertising you see.
Visit our Privacy Policy to learn more. By continuing to use the site, you agree to this use of cookies and data.

Meteo orario Mérida

Oggi, 29 Settembre, Martedi

Tempo Temperatura Precipitazioni Vento Pressione Umidità
00:00 +13°C° 0.1 mm 1 m/s 591 mm Hg 88%
01:00 +13°C° 0.1 mm 2 m/s 590 mm Hg 88%
02:00 +13°C° 0 mm 2 m/s 590 mm Hg 87%
03:00 +13°C° 0 mm 2 m/s 590 mm Hg 87%
04:00 +13°C° 0 mm 2 m/s 590 mm Hg 86%
05:00 +14°C° 0.1 mm 2 m/s 591 mm Hg 86%
06:00 +15°C° 0.1 mm 2 m/s 592 mm Hg 85%
07:00 +16°C° 0.1 mm 2 m/s 593 mm Hg 85%
08:00 +18°C° 0.2 mm 2 m/s 594 mm Hg 81%
09:00 +19°C° 0.2 mm 2 m/s 594 mm Hg 76%
10:00 +20°C° 0.2 mm 2 m/s 595 mm Hg 72%
11:00 +21°C° 0.9 mm 2 m/s 594 mm Hg 73%
12:00 +21°C° 0.9 mm 2 m/s 594 mm Hg 74%
13:00 +21°C° 0.9 mm 2 m/s 593 mm Hg 74%
14:00 +21°C° 1 mm 2 m/s 592 mm Hg 78%
15:00 +20°C° 1 mm 2 m/s 592 mm Hg 81%
16:00 +20°C° 1 mm 2 m/s 591 mm Hg 84%
17:00 +18°C° 0.5 mm 2 m/s 591 mm Hg 86%
18:00 +16°C° 0.5 mm 2 m/s 591 mm Hg 89%
19:00 +15°C° 0.5 mm 2 m/s 591 mm Hg 91%
20:00 +15°C° 0 mm 2 m/s 591 mm Hg 90%
21:00 +15°C° 0 mm 2 m/s 591 mm Hg 88%
22:00 +14°C° 0 mm 2 m/s 592 mm Hg 87%
23:00 +14°C° 0.1 mm 2 m/s 592 mm Hg 87%

Domani, 30 Settembre, Mercoledi

Tempo Temperatura Precipitazioni Vento Pressione Umidità
00:00 +15°C° 0.1 mm 2 m/s 591 mm Hg 88%
01:00 +15°C° 0.1 mm 2 m/s 591 mm Hg 89%
02:00 +14°C° 0 mm 2 m/s 591 mm Hg 87%
03:00 +14°C° 0 mm 2 m/s 591 mm Hg 86%
04:00 +14°C° 0 mm 2 m/s 591 mm Hg 85%
05:00 +15°C° 0 mm 2 m/s 591 mm Hg 81%
06:00 +16°C° 0 mm 2 m/s 592 mm Hg 77%
07:00 +17°C° 0 mm 2 m/s 593 mm Hg 73%
08:00 +19°C° 0 mm 2 m/s 594 mm Hg 68%
09:00 +20°C° 0 mm 2 m/s 595 mm Hg 63%
10:00 +23°C° 0 mm 2 m/s 596 mm Hg 58%
11:00 +23°C° 0.5 mm 2 m/s 595 mm Hg 61%
12:00 +23°C° 0.5 mm 2 m/s 595 mm Hg 64%
13:00 +23°C° 0.5 mm 2 m/s 594 mm Hg 68%
14:00 +21°C° 0.6 mm 2 m/s 593 mm Hg 69%
15:00 +21°C° 0.6 mm 2 m/s 593 mm Hg 71%
16:00 +21°C° 0.6 mm 1 m/s 592 mm Hg 73%
17:00 +19°C° 0.2 mm 1 m/s 592 mm Hg 78%
18:00 +18°C° 0.2 mm 1 m/s 591 mm Hg 83%
19:00 +15°C° 0.2 mm 1 m/s 591 mm Hg 88%
20:00 +15°C° 0 mm 2 m/s 591 mm Hg 84%
21:00 +14°C° 0 mm 2 m/s 591 mm Hg 81%
22:00 +14°C° 0 mm 2 m/s 591 mm Hg 77%
23:00 +14°C° 0 mm 2 m/s 591 mm Hg 77%

Dopodomani, 1 Ottobre, Giovedi

Tempo Temperatura Precipitazioni Vento Pressione Umidità
00:00 +14°C° 0 mm 2 m/s 591 mm Hg 76%
01:00 +14°C° 0 mm 2 m/s 590 mm Hg 76%
02:00 +14°C° 0 mm 2 m/s 590 mm Hg 75%
03:00 +14°C° 0 mm 2 m/s 590 mm Hg 75%
04:00 +14°C° 0 mm 2 m/s 590 mm Hg 74%
05:00 +15°C° 0 mm 2 m/s 591 mm Hg 72%
06:00 +16°C° 0 mm 2 m/s 592 mm Hg 70%
07:00 +17°C° 0 mm 2 m/s 593 mm Hg 68%
08:00 +19°C° 0 mm 2 m/s 594 mm Hg 65%
09:00 +20°C° 0 mm 2 m/s 595 mm Hg 61%
10:00 +23°C° 0 mm 2 m/s 595 mm Hg 58%
11:00 +21°C° 0.4 mm 2 m/s 595 mm Hg 64%
12:00 +21°C° 0.4 mm 2 m/s 594 mm Hg 70%
13:00 +21°C° 0.4 mm 2 m/s 593 mm Hg 76%
14:00 +20°C° 0.6 mm 2 m/s 592 mm Hg 78%
15:00 +20°C° 0.6 mm 1 m/s 592 mm Hg 81%
16:00 +20°C° 0.6 mm 1 m/s 591 mm Hg 83%
17:00 +19°C° 0.3 mm 1 m/s 591 mm Hg 87%
18:00 +16°C° 0.3 mm 1 m/s 591 mm Hg 90%
19:00 +15°C° 0.3 mm 1 m/s 590 mm Hg 93%
20:00 +15°C° 0 mm 1 m/s 591 mm Hg 91%
21:00 +15°C° 0 mm 1 m/s 591 mm Hg 89%
22:00 +14°C° 0 mm 1 m/s 591 mm Hg 88%
23:00 +14°C° 0 mm 1 m/s 590 mm Hg 86%

2 Ottobre, Venerdi

Tempo Temperatura Precipitazioni Vento Pressione Umidità
00:00 +14°C° 0 mm 1 m/s 590 mm Hg 85%
01:00 +14°C° 0 mm 1 m/s 589 mm Hg 84%
02:00 +14°C° 0 mm 2 m/s 590 mm Hg 83%
03:00 +14°C° 0 mm 2 m/s 590 mm Hg 82%
04:00 +14°C° 0 mm 2 m/s 590 mm Hg 81%
05:00 +15°C° 0 mm 1 m/s 591 mm Hg 79%
06:00 +16°C° 0 mm 1 m/s 592 mm Hg 76%
07:00 +18°C° 0 mm 1 m/s 592 mm Hg 73%
08:00 +19°C° 0.1 mm 2 m/s 593 mm Hg 71%
09:00 +20°C° 0.1 mm 2 m/s 594 mm Hg 68%
10:00 +21°C° 0.1 mm 2 m/s 595 mm Hg 66%
11:00 +21°C° 0.9 mm 2 m/s 594 mm Hg 72%
12:00 +20°C° 0.9 mm 2 m/s 593 mm Hg 79%
13:00 +20°C° 0.9 mm 1 m/s 592 mm Hg 85%
14:00 +20°C° 1.2 mm 1 m/s 591 mm Hg 86%
15:00 +20°C° 1.2 mm 1 m/s 591 mm Hg 87%
16:00 +19°C° 1.2 mm 1 m/s 591 mm Hg 87%
17:00 +18°C° 1.3 mm 1 m/s 591 mm Hg 90%
18:00 +16°C° 1.3 mm 1 m/s 591 mm Hg 92%
19:00 +16°C° 1.3 mm 1 m/s 591 mm Hg 94%
20:00 +16°C° 1.2 mm 1 m/s 591 mm Hg 94%
21:00 +15°C° 1.2 mm 1 m/s 592 mm Hg 94%
22:00 +15°C° 1.2 mm 1 m/s 592 mm Hg 94%
23:00 +15°C° 0.8 mm 1 m/s 592 mm Hg 93%

3 Ottobre, Sabato

Tempo Temperatura Precipitazioni Vento Pressione Umidità
00:00 +15°C° 0.8 mm 1 m/s 591 mm Hg 92%
01:00 +15°C° 0.8 mm 1 m/s 591 mm Hg 91%
02:00 +15°C° 0.1 mm 1 m/s 591 mm Hg 91%
03:00 +15°C° 0.1 mm 1 m/s 591 mm Hg 90%
04:00 +15°C° 0.1 mm 1 m/s 591 mm Hg 90%
05:00 +16°C° 0 mm 1 m/s 591 mm Hg 89%
06:00 +16°C° 0 mm 1 m/s 592 mm Hg 87%
07:00 +18°C° 0 mm 1 m/s 593 mm Hg 86%
08:00 +18°C° 0.2 mm 2 m/s 593 mm Hg 83%
09:00 +19°C° 0.2 mm 2 m/s 594 mm Hg 81%
10:00 +20°C° 0.2 mm 2 m/s 595 mm Hg 78%
11:00 +20°C° 1 mm 2 m/s 594 mm Hg 80%
12:00 +20°C° 1 mm 2 m/s 593 mm Hg 83%
13:00 +20°C° 1 mm 2 m/s 593 mm Hg 85%
14:00 +19°C° 1.2 mm 2 m/s 592 mm Hg 87%
15:00 +19°C° 1.2 mm 2 m/s 592 mm Hg 88%
16:00 +19°C° 1.2 mm 1 m/s 591 mm Hg 89%
17:00 +17°C° 0.3 mm 2 m/s 591 mm Hg 89%
18:00 +17°C° 0.3 mm 2 m/s 592 mm Hg 90%
19:00 +16°C° 0.3 mm 2 m/s 592 mm Hg 90%
20:00 +16°C° 0 mm 2 m/s 592 mm Hg 86%
21:00 +15°C° 0 mm 2 m/s 592 mm Hg 83%
22:00 +15°C° 0 mm 2 m/s 592 mm Hg 79%
23:00 +15°C° 0 mm 2 m/s 592 mm Hg 76%

4 Ottobre, Domenica

Tempo Temperatura Precipitazioni Vento Pressione Umidità
00:00 +14°C° 0 mm 2 m/s 591 mm Hg 73%
01:00 +13°C° 0 mm 2 m/s 591 mm Hg 71%
02:00 +13°C° 0 mm 2 m/s 591 mm Hg 70%
03:00 +13°C° 0 mm 2 m/s 591 mm Hg 69%
04:00 +13°C° 0 mm 2 m/s 591 mm Hg 69%
05:00 +15°C° 0 mm 2 m/s 592 mm Hg 68%
06:00 +16°C° 0 mm 2 m/s 593 mm Hg 67%
07:00 +18°C° 0 mm 1 m/s 594 mm Hg 66%
08:00 +18°C° 0 mm 2 m/s 594 mm Hg 62%
09:00 +20°C° 0 mm 2 m/s 595 mm Hg 59%
10:00 +23°C° 0 mm 2 m/s 596 mm Hg 55%
11:00 +23°C° 0.3 mm 2 m/s 595 mm Hg 59%
12:00 +21°C° 0.3 mm 2 m/s 595 mm Hg 62%
13:00 +21°C° 0.3 mm 2 m/s 594 mm Hg 66%
14:00 +21°C° 0.6 mm 2 m/s 593 mm Hg 72%
15:00 +20°C° 0.6 mm 2 m/s 593 mm Hg 78%
16:00 +20°C° 0.6 mm 1 m/s 592 mm Hg 84%
17:00 +18°C° 0.3 mm 1 m/s 592 mm Hg 86%
18:00 +16°C° 0.3 mm 1 m/s 592 mm Hg 89%
19:00 +15°C° 0.3 mm 1 m/s 591 mm Hg 91%
20:00 +14°C° 0.1 mm 1 m/s 591 mm Hg 88%
21:00 +14°C° 0.1 mm 1 m/s 592 mm Hg 85%
22:00 +13°C° 0.1 mm 1 m/s 592 mm Hg 82%
23:00 +13°C° 0.1 mm 1 m/s 591 mm Hg 81%
Mostrare altro